Temp
67 71 70 72 63 58 54 61 63 68 69 74 78 76 74 72 71 64 74 76 74 72 72 73 74 75 75 75 75 74 75 75 75 75 75 75 75 75 75 75 75 76 77 77 76 76 76 76 75
70 76 72 65 58 52 57 65 66 70 76 78 79 77 75 71 75 74 74 76 74 73 72 73 73 74 75 75 75 74 75 75 75 75 75 75 75 75 75 75 74 75 76 77 77 76 76 75 74
72 75 69 61 52 52 55 65 70 76 79 79 75 78 76 75 78 77 76 74 73 72 72 72 73 73 74 74 74 74 74 74 74 74 75 75 75 75 75 74 74 75 76 77 77 76 75 73 73
72 72 69 60 51 58 60 68 72 75 80 80 77 75 78 81 79 78 75 75 72 69 71 71 72 73 74 74 74 74 74 74 73 74 74 75 75 75 74 74 74 74 76 76 76 76 74 72 72
69 66 59 53 54 62 68 71 72 74 74 78 75 71 73 80 77 75 74 75 71 69 69 70 71 72 74 74 75 74 74 73 73 73 74 74 75 74 74 73 73 74 74 75 75 74 73 72 71
67 63 55 53 57 66 69 71 77 74 76 77 76 72 73 79 76 74 74 72 72 71 69 70 72 72 73 74 74 73 73 73 73 73 73 74 74 73 73 73 73 73 73 73 73 73 72 71 71
63 57 52 53 60 64 68 72 74 73 74 75 77 68 74 79 79 75 73 70 69 69 69 68 69 71 72 71 72 71 72 72 72 72 72 73 72 72 73 73 73 73 73 73 73 72 71 71 71
63 59 53 52 57 59 71 73 75 74 71 80 77 70 68 78 77 74 73 70 70 69 68 66 67 68 69 69 70 70 70 71 71 71 71 71 71 71 72 72 72 72 72 72 72 71 70 70 70
64 57 52 56 59 64 72 69 76 75 73 76 79 76 75 78 78 75 71 71 70 71 68 67 66 66 66 68 71 71 71 71 70 71 71 69 70 69 70 71 71 71 71 71 71 71 70 69 69
61 54 54 63 62 66 69 66 69 71 69 71 75 73 76 76 74 71 69 67 69 69 71 69 69 68 66 70 68 69 72 72 71 69 69 69 68 68 71 70 70 70 71 70 70 70 69 68 69
59 57 61 65 65 64 62 68 66 66 66 71 72 67 71 72 71 70 70 70 70 71 72 73 71 68 66 65 64 65 68 69 71 71 71 69 69 67 68 68 69 69 70 69 69 69 69 69 69
58 64 64 65 67 64 64 63 69 66 70 72 71 70 71 69 69 69 68 68 69 70 70 71 71 68 66 64 63 64 64 65 67 68 70 69 69 69 67 67 68 67 68 68 67 68 68 68 68
60 63 66 69 69 68 68 63 68 69 73 72 72 71 68 68 67 68 69 69 69 67 69 69 70 69 70 68 66 65 64 64 65 66 68 68 69 68 67 67 68 67 68 68 67 67 67 67 67
64 65 65 67 68 69 67 65 67 69 72 69 68 66 67 67 66 66 66 65 66 67 67 68 67 66 66 64 63 64 65 67 67 66 66 67 67 68 69 69 69 69 69 69 69 68 67 67 68
66 62 65 66 65 64 64 62 62 66 69 65 64 65 65 65 65 63 63 64 63 64 65 67 67 63 61 60 60 61 62 63 64 66 67 67 66 65 65 65 67 69 71 69 69 68 68 68 68
60 58 53 61 65 66 63 55 64 65 65 59 62 63 62 62 62 62 62 62 60 60 61 62 66 61 59 58 58 59 59 60 61 61 65 63 66 66 65 65 65 65 66 65 65 66 66 67 67
54 48 51 56 61 59 59 53 64 63 63 60 60 60 60 60 60 60 61 59 60 59 60 60 60 59 58 58 57 57 57 57 59 59 59 61 64 64 62 64 66 66 65 65 65 65 64 64 65
47 47 45 47 56 57 53 52 56 60 60 58 57 57 57 56 57 60 59 58 58 58 59 60 60 58 58 59 59 59 58 56 56 57 58 60 60 62 62 62 64 65 65 65 65 64 65 65 65
55 50 46 49 60 55 51 52 54 58 58 55 55 54 54 56 57 58 58 57 58 58 58 58 58 58 58 58 56 58 55 57 56 57 58 58 59 60 60 60 60 61 60 64 66 65 64 64 65
54 48 47 51 57 56 52 49 54 56 53 54 54 53 54 54 56 59 57 55 54 54 55 56 56 56 57 57 56 54 55 54 55 56 56 58 58 57 58 56 55 57 58 60 64 65 64 64 65
50 48 48 47 53 52 49 47 49 55 56 57 55 54 54 54 54 56 57 54 51 51 50 55 56 55 55 55 55 55 55 55 53 56 56 56 57 56 55 54 53 53 55 56 59 60 64 64 65
45 53 52 51 46 40 46 35 45 49 51 53 51 51 51 53 55 56 55 52 50 50 50 52 54 54 56 53 52 50 50 49 52 54 53 53 54 53 54 52 52 52 52 53 54 58 58 62 63
51 54 49 49 43 41 44 37 42 48 47 49 51 53 52 52 52 53 53 48 48 49 47 48 51 52 52 51 50 49 48 50 52 51 49 49 50 50 50 48 49 49 50 50 51 52 53 57 62
55 50 47 43 41 34 40 37 37 41 46 50 53 53 52 52 52 53 53 51 50 47 48 47 49 50 50 49 48 47 49 49 48 47 46 46 46 47 47 47 47 48 48 47 48 49 49 49 54
50 41 34 35 33 33 44 38 38 47 50 52 51 52 52 54 54 53 51 49 49 47 46 50 48 48 48 47 47 46 46 47 45 44 43 43 42 42 43 44 44 45 46 46 46 45 45 44 45
43 42 33 31 29 32 42 33 38 51 53 51 51 49 51 51 53 52 50 48 47 46 46 46 47 46 46 47 46 45 44 43 43 41 40 40 39 39 40 41 41 44 44 44 43 42 41 41 40
45 39 44 38 34 31 33 40 46 49 45 46 46 47 47 49 49 49 50 48 46 45 45 44 45 46 46 47 46 44 42 40 39 38 37 36 37 37 37 38 39 41 43 42 42 40 39 38 38
46 49 38 35 29 27 31 33 34 36 38 43 42 43 46 48 49 49 48 47 46 45 45 45 44 45 47 46 43 42 39 38 37 36 35 35 35 35 35 35 37 39 40 40 39 37 37 35 35
43 39 40 39 34 29 24 30 40 37 40 40 41 45 45 47 48 49 47 47 46 45 43 43 45 45 44 43 40 38 37 37 35 34 34 33 34 33 33 34 34 36 38 39 37 36 34 33 33
44 40 39 31 32 32 29 27 41 39 42 43 42 45 46 46 47 48 45 47 45 44 43 42 44 44 42 40 38 37 36 35 33 33 32 32 32 33 32 32 33 34 36 36 35 34 33 32 31
MSLP
1008.90 1008.59 1008.91 1009.13 1010.22 1010.33 1009.86 1008.70 1007.42 1006.34 1005.58 1005.02 1004.76 1005.10 1005.46 1005.65 1006.17 1007.03 1006.23 1006.43 1006.65 1007.29 1008.19 1008.72 1008.97 1009.39 1009.55 1009.87 1010.21 1010.69 1011.12 1011.41 1011.72 1012.00 1012.15 1012.23 1012.29 1012.40 1012.48 1012.55 1012.59 1012.66 1012.74 1012.88 1013.08 1013.16 1013.34 1013.60 1013.83
1008.73 1008.57 1008.79 1009.33 1010.32 1010.86 1009.76 1008.23 1007.09 1005.90 1004.94 1004.62 1004.68 1004.88 1005.23 1005.52 1005.60 1006.04 1006.34 1006.45 1006.78 1006.97 1007.93 1008.48 1008.91 1009.24 1009.48 1009.72 1010.08 1010.47 1010.89 1011.17 1011.48 1011.67 1011.90 1012.14 1012.32 1012.46 1012.56 1012.65 1012.74 1012.77 1012.86 1012.98 1013.11 1013.27 1013.37 1013.50 1013.75
1008.53 1008.36 1009.10 1009.98 1010.77 1010.57 1009.55 1008.10 1006.81 1005.60 1004.89 1004.58 1004.88 1005.04 1005.22 1005.25 1005.37 1005.63 1005.61 1006.38 1007.12 1007.59 1007.92 1008.29 1008.52 1008.84 1009.25 1009.56 1009.81 1010.13 1010.47 1010.80 1011.14 1011.39 1011.61 1011.83 1012.03 1012.23 1012.42 1012.59 1012.74 1012.80 1012.85 1012.98 1013.10 1013.25 1013.38 1013.47 1013.64
1008.49 1008.94 1009.93 1010.15 1010.56 1009.83 1009.07 1007.94 1007.04 1005.99 1004.96 1004.60 1004.74 1005.26 1005.18 1005.30 1005.69 1006.01 1006.17 1006.82 1007.57 1008.09 1008.10 1008.17 1008.42 1008.65 1008.91 1009.24 1009.60 1009.90 1010.15 1010.42 1010.82 1011.12 1011.33 1011.60 1011.77 1011.98 1012.17 1012.39 1012.49 1012.61 1012.77 1012.84 1012.97 1013.04 1013.20 1013.40 1013.46
1008.99 1009.88 1010.90 1011.13 1010.75 1009.90 1008.98 1008.05 1007.03 1006.47 1006.06 1005.45 1005.12 1005.37 1005.49 1005.51 1005.81 1006.20 1006.44 1007.02 1007.21 1007.72 1007.85 1008.03 1008.17 1008.38 1008.72 1009.01 1009.22 1009.52 1009.83 1010.11 1010.37 1010.65 1010.91 1011.14 1011.43 1011.70 1011.93 1012.12 1012.32 1012.41 1012.49 1012.64 1012.75 1012.93 1013.06 1013.11 1013.22
1009.95 1011.01 1011.77 1011.79 1010.94 1009.96 1008.97 1008.15 1007.02 1006.72 1006.29 1005.83 1005.58 1005.78 1006.20 1006.11 1006.16 1006.52 1006.63 1006.96 1007.25 1007.50 1007.77 1008.17 1008.51 1008.53 1008.69 1008.70 1008.88 1009.30 1009.72 1010.09 1010.38 1010.59 1010.77 1010.94 1011.14 1011.38 1011.58 1011.84 1012.11 1012.25 1012.32 1012.36 1012.44 1012.55 1012.81 1013.02 1013.05
1010.62 1011.68 1012.24 1011.76 1010.99 1010.09 1009.41 1008.29 1007.76 1007.46 1006.66 1006.25 1006.25 1006.53 1006.77 1006.43 1006.51 1007.01 1007.31 1007.80 1008.18 1008.78 1009.54 1009.68 1009.91 1010.18 1009.90 1009.85 1010.09 1010.23 1010.33 1010.37 1010.50 1010.77 1011.02 1011.21 1011.34 1011.38 1011.51 1011.69 1011.87 1012.04 1012.15 1012.21 1012.23 1012.29 1012.37 1012.57 1012.82
1010.60 1011.83 1012.18 1011.76 1011.11 1010.36 1009.39 1008.64 1008.11 1007.76 1007.30 1006.64 1006.54 1006.97 1007.21 1006.75 1007.43 1008.00 1008.35 1008.79 1009.55 1010.29 1010.71 1011.05 1011.08 1011.13 1011.07 1011.03 1011.41 1011.68 1011.75 1011.48 1011.24 1011.21 1011.27 1011.41 1011.58 1011.76 1011.77 1011.77 1011.74 1011.73 1011.85 1011.94 1011.95 1012.03 1012.05 1012.09 1012.24
1010.48 1011.81 1012.45 1011.71 1011.15 1010.62 1009.74 1009.39 1008.29 1007.85 1007.64 1007.33 1007.19 1007.65 1008.15 1007.64 1007.69 1008.38 1008.85 1009.36 1010.09 1010.61 1010.94 1011.09 1011.22 1011.30 1011.36 1011.51 1011.38 1011.53 1011.85 1012.11 1012.21 1012.24 1012.21 1012.09 1011.98 1011.86 1011.95 1011.83 1011.72 1011.74 1011.76 1011.85 1011.82 1011.75 1011.72 1011.85 1011.85
1011.30 1012.31 1012.00 1011.31 1011.08 1010.94 1010.20 1009.82 1009.08 1008.45 1008.27 1008.06 1007.96 1009.02 1008.76 1008.59 1009.07 1009.66 1010.11 1010.39 1010.52 1010.77 1010.89 1010.80 1010.49 1010.47 1010.90 1011.30 1011.68 1011.71 1011.81 1011.75 1012.06 1012.27 1012.43 1012.50 1012.45 1012.37 1011.93 1011.64 1011.53 1011.40 1011.34 1011.39 1011.53 1011.67 1011.79 1011.86 1011.65
1011.70 1011.96 1011.78 1011.40 1011.03 1010.66 1010.17 1009.65 1009.30 1009.15 1009.09 1008.76 1009.72 1010.50 1010.32 1010.22 1010.75 1011.23 1011.48 1011.54 1011.77 1011.87 1011.41 1011.22 1010.71 1010.33 1010.86 1011.24 1011.47 1011.52 1011.51 1011.52 1011.40 1012.14 1012.41 1012.55 1012.48 1012.37 1012.25 1011.97 1011.52 1011.28 1011.15 1011.03 1011.15 1011.22 1011.31 1011.30 1011.32
1012.03 1011.84 1011.88 1011.49 1010.87 1010.66 1010.18 1009.55 1009.67 1010.01 1010.29 1009.97 1010.49 1011.32 1011.50 1011.84 1012.35 1012.73 1012.75 1012.72 1012.51 1012.64 1012.57 1012.31 1011.76 1011.42 1011.53 1011.65 1011.65 1011.66 1011.60 1011.68 1011.76 1011.48 1011.84 1012.43 1012.26 1011.98 1011.92 1011.89 1011.75 1011.70 1011.26 1010.83 1010.65 1010.62 1010.66 1010.71 1010.62
1012.17 1012.04 1011.72 1011.17 1010.72 1010.41 1010.02 1010.12 1010.54 1010.78 1011.20 1011.21 1011.64 1012.35 1012.76 1013.18 1013.56 1013.84 1013.82 1013.77 1013.51 1013.35 1013.48 1013.42 1013.14 1012.94 1012.71 1012.46 1012.38 1012.33 1012.29 1012.18 1011.93 1011.65 1011.35 1011.34 1011.44 1011.33 1011.39 1011.46 1011.35 1011.17 1011.17 1010.95 1010.64 1010.15 1010.13 1010.09 1010.18
1012.26 1012.08 1011.90 1011.59 1011.22 1010.70 1010.90 1010.89 1010.64 1011.69 1012.02 1012.36 1012.57 1013.53 1014.06 1014.39 1014.82 1014.84 1014.86 1015.07 1014.81 1014.80 1014.64 1014.51 1014.16 1013.93 1013.62 1013.42 1012.80 1012.77 1012.50 1011.95 1011.68 1011.40 1010.97 1010.57 1010.52 1010.36 1010.74 1011.21 1011.05 1010.60 1010.37 1010.18 1010.23 1010.04 1009.40 1009.25 1009.37
1012.41 1012.54 1012.12 1012.31 1011.94 1011.92 1011.40 1011.68 1011.93 1012.69 1012.66 1013.46 1014.11 1014.80 1015.25 1015.81 1016.04 1016.13 1016.35 1016.25 1016.06 1015.77 1015.34 1014.95 1014.63 1014.52 1014.42 1014.21 1013.61 1013.19 1013.12 1012.58 1011.85 1011.49 1011.00 1010.47 1010.30 1010.26 1009.82 1009.28 1010.48 1010.39 1009.94 1009.61 1009.45 1009.36 1009.48 1009.03 1008.51
1013.12 1013.18 1013.54 1013.35 1012.99 1012.80 1012.53 1012.94 1012.86 1013.41 1013.66 1015.03 1015.55 1016.19 1016.64 1017.02 1017.13 1017.10 1016.83 1016.60 1016.51 1016.21 1015.81 1015.39 1015.03 1014.84 1014.64 1014.53 1013.92 1013.24 1013.24 1013.08 1012.54 1011.95 1011.30 1011.35 1010.39 1009.79 1009.61 1008.76 1008.72 1008.74 1009.76 1009.29 1008.89 1008.59 1008.48 1008.28 1008.29
1014.39 1014.61 1014.43 1014.13 1014.07 1014.30 1014.20 1014.58 1014.26 1014.03 1014.77 1016.19 1016.92 1017.47 1017.81 1017.99 1017.84 1017.81 1017.55 1017.29 1016.99 1016.52 1016.10 1015.69 1015.53 1015.41 1015.04 1014.53 1013.88 1013.44 1013.21 1013.10 1012.88 1012.46 1011.98 1011.49 1010.92 1010.42 1010.04 1008.89 1008.32 1008.17 1007.53 1008.26 1008.19 1007.70 1007.56 1007.35 1007.18
1015.44 1015.47 1015.23 1015.25 1015.23 1015.15 1015.59 1016.57 1016.41 1015.97 1016.00 1017.50 1018.16 1018.51 1018.50 1018.66 1018.87 1018.47 1017.99 1017.51 1017.08 1016.69 1016.32 1015.94 1015.83 1015.68 1015.12 1014.65 1014.26 1013.89 1013.40 1013.28 1012.96 1012.79 1012.11 1011.59 1011.27 1010.51 1009.77 1008.95 1008.12 1007.73 1007.88 1006.52 1006.68 1006.60 1006.43 1006.21 1006.00
1015.56 1015.97 1016.14 1016.14 1015.74 1016.01 1017.46 1017.82 1018.33 1018.33 1018.13 1018.76 1019.10 1019.19 1019.35 1019.16 1018.98 1018.72 1018.35 1017.93 1017.73 1017.38 1016.98 1016.66 1016.34 1016.03 1015.43 1014.81 1014.21 1013.56 1013.62 1013.70 1013.59 1013.07 1012.50 1012.20 1011.45 1010.69 1010.00 1009.35 1008.80 1008.25 1007.23 1006.19 1005.45 1005.02 1005.06 1004.51 1004.34
1015.97 1016.34 1016.68 1016.77 1016.43 1016.79 1018.25 1019.21 1019.57 1019.51 1019.70 1019.81 1020.07 1020.10 1020.18 1019.91 1019.46 1018.97 1018.79 1018.66 1018.44 1018.10 1017.72 1017.35 1016.99 1016.48 1016.01 1015.35 1014.72 1014.79 1014.54 1014.34 1013.89 1013.37 1012.81 1012.34 1011.75 1011.27 1010.40 1009.78 1009.01 1008.23 1007.30 1006.11 1004.93 1003.91 1003.69 1003.90 1004.04
1016.44 1016.94 1017.02 1017.39 1017.21 1017.87 1018.54 1020.15 1020.47 1020.40 1020.39 1020.36 1020.51 1020.54 1020.33 1020.08 1019.72 1019.32 1018.92 1019.13 1018.86 1018.53 1018.08 1017.59 1016.95 1016.59 1016.50 1016.12 1015.58 1015.00 1014.56 1014.17 1013.77 1013.30 1013.08 1012.53 1011.87 1011.29 1010.69 1010.10 1008.99 1008.04 1006.74 1005.72 1004.84 1004.18 1003.41 1002.68 1002.47
1016.73 1016.95 1017.34 1017.50 1018.39 1018.96 1019.09 1021.00 1021.21 1021.04 1021.09 1020.93 1021.00 1020.80 1020.70 1020.39 1019.92 1019.46 1019.13 1019.07 1018.90 1018.63 1018.14 1017.63 1017.30 1016.99 1016.64 1016.36 1016.07 1015.80 1015.16 1014.54 1014.29 1013.92 1013.57 1013.04 1012.36 1011.47 1010.62 1010.11 1009.46 1008.55 1007.36 1006.21 1005.35 1004.32 1003.59 1002.69 1001.82
1017.03 1017.14 1017.59 1017.99 1018.82 1019.60 1020.05 1020.83 1021.29 1021.25 1021.30 1021.42 1021.30 1021.12 1021.02 1020.72 1020.38 1019.84 1019.45 1019.09 1018.86 1018.88 1018.52 1018.02 1017.61 1017.45 1017.13 1016.84 1016.62 1016.29 1015.71 1015.28 1014.94 1014.66 1014.10 1013.53 1012.87 1012.15 1011.51 1010.91 1009.69 1008.91 1008.12 1006.86 1005.61 1004.83 1004.07 1003.40 1002.30
1017.44 1017.53 1018.16 1019.04 1019.86 1020.99 1020.88 1021.23 1021.75 1021.82 1021.91 1021.89 1021.88 1021.60 1021.42 1020.87 1020.45 1020.05 1019.57 1019.09 1019.18 1018.91 1018.75 1018.47 1018.20 1017.94 1017.71 1017.50 1017.11 1016.75 1016.41 1015.92 1015.48 1015.16 1014.47 1013.90 1013.48 1012.89 1012.15 1011.63 1010.62 1009.71 1008.84 1007.89 1006.64 1005.88 1005.27 1004.22 1002.94
1018.28 1019.22 1019.95 1020.80 1021.33 1021.62 1021.37 1021.65 1021.98 1022.27 1022.39 1022.71 1022.80 1022.64 1022.34 1021.72 1021.08 1020.42 1019.93 1019.87 1019.99 1020.28 1019.99 1019.55 1019.08 1018.85 1018.73 1018.39 1017.83 1017.35 1016.90 1016.57 1016.19 1015.88 1015.32 1014.71 1014.16 1013.37 1012.72 1012.09 1011.04 1010.40 1009.77 1008.95 1007.64 1006.51 1006.00 1005.38 1004.27
1019.53 1020.34 1021.37 1022.03 1022.80 1022.64 1021.90 1022.34 1022.60 1023.07 1023.72 1024.21 1024.17 1023.98 1023.43 1022.93 1022.22 1021.36 1020.84 1021.12 1021.26 1021.10 1020.76 1020.37 1019.87 1019.36 1019.24 1019.01 1018.68 1018.32 1017.86 1017.61 1017.15 1016.86 1016.44 1016.03 1015.41 1014.35 1013.61 1012.67 1011.40 1011.21 1010.43 1009.59 1008.63 1007.58 1006.71 1006.22 1005.35
1019.97 1020.74 1021.42 1022.38 1023.60 1024.13 1023.36 1023.42 1023.73 1024.28 1024.95 1025.16 1025.01 1024.61 1024.29 1023.88 1023.37 1022.69 1022.00 1021.61 1021.80 1021.54 1021.41 1021.11 1020.87 1020.46 1019.89 1019.43 1019.23 1019.13 1018.78 1018.52 1018.35 1017.93 1017.54 1016.99 1016.36 1015.21 1014.30 1013.35 1012.29 1012.04 1010.94 1009.99 1009.26 1008.29 1007.35 1006.85 1006.32
1020.29 1021.19 1022.20 1023.36 1024.46 1025.06 1024.55 1024.42 1024.74 1025.61 1025.86 1025.93 1025.68 1025.31 1024.78 1024.55 1024.22 1023.46 1022.64 1021.94 1021.41 1021.38 1021.61 1021.44 1021.18 1020.94 1020.89 1020.22 1020.08 1020.09 1020.03 1019.70 1019.38 1018.86 1018.29 1017.78 1017.08 1015.99 1015.25 1014.16 1013.58 1012.80 1011.85 1011.08 1010.29 1009.44 1008.86 1008.17 1007.63
1021.56 1022.30 1023.22 1024.11 1025.31 1025.95 1026.36 1025.92 1026.30 1026.73 1026.77 1026.52 1026.17 1025.95 1025.53 1024.84 1024.17 1023.64 1023.00 1022.30 1022.23 1022.47 1022.51 1022.01 1021.57 1021.03 1021.38 1021.22 1021.02 1021.04 1020.82 1020.54 1020.31 1019.78 1019.22 1018.70 1017.96 1016.96 1016.00 1015.45 1014.15 1013.56 1013.27 1012.08 1011.26 1010.63 1010.35 1009.43 1008.85
1022.68 1023.67 1024.34 1025.18 1026.19 1026.67 1027.44 1026.98 1027.25 1027.35 1027.02 1026.90 1026.90 1026.49 1025.70 1025.50 1024.70 1023.91 1023.68 1022.82 1022.96 1023.02 1022.96 1022.71 1022.36 1021.74 1021.83 1022.03 1021.85 1021.88 1021.74 1021.41 1021.16 1020.64 1020.05 1019.51 1018.73 1017.84 1017.20 1016.37 1015.24 1015.10 1014.23 1013.18 1012.15 1011.76 1011.39 1010.58 1010.04
Wind_Speed
5 6 3 4 5 5 4 6 2 4 3 2 5 5 4 2 4 4 5 11 9 13 13 14 18 16 16 15 14 13 12 12 11 9 9 9 10 10 10 10 10 10 12 12 11 11 11 10 10
3 2 4 3 7 5 6 5 5 6 4 4 4 4 3 1 1 0 2 7 8 16 13 13 18 17 17 16 16 15 14 14 13 13 12 11 10 10 10 9 8 9 11 11 11 10 11 11 9
3 2 4 5 4 1 3 5 7 5 4 3 4 2 3 3 1 6 2 10 9 11 11 12 19 19 18 17 17 17 16 15 13 13 13 12 12 11 11 9 8 8 11 11 11 10 10 9 9
3 5 5 6 2 3 2 7 6 6 8 7 6 4 3 2 2 1 8 12 10 6 8 11 18 19 19 19 18 18 18 17 15 14 14 14 14 13 11 10 10 10 11 12 12 11 9 9 10
5 4 6 4 4 6 4 6 5 6 7 8 2 3 1 4 4 8 11 11 13 9 7 10 18 19 19 19 19 19 18 17 17 17 17 16 15 14 13 12 12 12 12 12 11 10 10 11 11
5 4 6 6 6 5 6 7 8 7 7 5 4 3 3 4 3 6 8 10 8 12 10 8 15 17 18 20 20 19 17 16 16 16 17 17 17 16 15 14 13 13 13 13 12 12 12 11 11
7 5 2 3 7 6 6 10 7 5 8 8 5 3 5 6 3 4 3 3 2 4 4 4 2 6 8 8 9 10 12 13 13 13 13 14 14 15 16 15 15 15 15 14 14 13 13 13 13
7 6 3 3 3 4 7 9 5 6 4 8 3 1 3 5 11 8 8 7 10 9 8 7 7 6 5 3 7 8 8 6 9 11 11 11 11 13 14 15 15 17 17 16 16 15 15 15 14
3 6 3 4 4 6 6 8 10 2 4 5 6 6 6 7 10 8 4 6 7 6 5 4 4 4 4 4 3 4 6 9 9 8 9 7 6 7 10 12 13 15 16 16 16 16 16 15 15
7 5 1 2 1 3 4 4 7 6 7 3 4 12 16 19 17 16 13 8 7 5 5 3 5 7 4 2 3 3 3 4 3 4 5 4 5 5 8 11 14 15 16 16 16 16 14 12 8
2 2 1 3 3 4 3 5 2 5 6 4 9 6 14 19 18 17 15 14 14 11 13 14 10 4 2 2 2 2 1 2 2 5 5 4 5 4 5 5 6 8 13 8 10 11 10 12 9
3 4 2 6 4 5 7 2 5 6 6 7 15 9 14 17 15 13 13 12 11 15 16 17 18 11 7 3 2 2 2 2 3 3 5 5 6 7 6 6 7 7 6 9 9 7 10 12 12
4 4 6 8 9 8 4 2 6 11 11 17 17 14 16 15 13 12 13 14 15 14 14 17 16 14 12 11 6 6 6 5 5 5 6 6 8 9 6 7 7 8 7 9 9 9 9 11 12
4 6 8 6 10 7 8 5 5 8 8 15 18 16 15 16 14 14 14 15 17 15 15 13 15 11 10 9 8 7 8 8 8 6 8 10 9 9 7 9 10 10 9 10 10 11 11 11 11
3 5 7 7 9 5 7 7 6 6 7 14 16 15 17 17 15 14 11 14 9 7 8 9 11 8 8 7 6 5 6 6 7 8 9 9 10 11 10 9 12 11 10 12 11 12 11 11 11
5 5 6 4 10 7 5 6 4 8 8 10 15 16 17 15 13 9 7 7 7 6 7 5 8 7 6 5 4 3 4 5 6 7 8 13 11 12 10 7 9 12 12 11 10 11 11 12 12
7 1 4 7 5 4 8 4 12 9 12 14 14 15 14 11 9 8 8 7 6 5 4 4 6 7 7 7 5 4 4 3 4 4 6 10 11 12 8 8 13 11 11 10 12 13 12 13 12
2 3 4 4 7 7 9 17 18 19 22 15 13 11 8 9 8 6 7 6 5 5 6 5 6 8 6 5 5 5 5 3 4 6 7 9 9 11 11 10 11 8 12 17 13 15 13 13 14
6 3 2 3 6 6 13 19 16 14 17 14 10 8 8 7 3 6 5 6 8 8 9 8 10 10 9 9 10 10 9 8 6 5 10 12 11 13 10 8 9 10 9 11 16 16 17 14 15
5 4 4 3 6 8 12 14 14 13 7 9 9 9 9 7 7 6 7 7 7 7 8 9 7 8 10 9 10 4 7 3 4 6 7 11 13 13 12 12 10 10 10 11 12 14 13 14 12
3 5 5 2 7 5 5 12 8 5 8 11 9 5 5 5 7 8 8 6 6 7 7 7 10 11 9 10 8 8 5 6 5 9 10 10 10 12 11 13 13 13 10 10 11 10 13 12 11
3 2 1 3 5 2 3 5 6 2 7 7 6 7 7 8 8 7 9 7 6 6 6 7 6 8 10 11 11 12 11 11 10 11 12 11 14 13 13 15 14 15 10 11 12 11 11 11 10
6 6 2 2 4 5 6 6 5 3 5 6 7 7 7 7 7 9 8 2 2 5 4 4 6 9 8 8 9 8 9 10 12 11 16 14 12 12 13 15 15 13 10 11 12 14 14 11 11
6 4 6 5 4 3 2 6 5 2 3 5 6 8 7 7 8 8 7 3 4 4 7 7 7 7 8 9 9 10 14 16 14 15 13 12 11 9 12 15 13 13 13 12 10 11 12 11 10
12 8 5 4 5 5 2 3 5 4 3 6 15 19 18 15 16 14 10 5 6 9 9 8 9 11 11 12 13 13 12 12 13 14 12 14 10 10 13 14 14 12 13 12 11 10 11 12 11
2 5 5 3 2 5 3 4 4 6 10 14 13 13 16 19 17 17 11 8 7 8 10 11 11 11 11 14 14 11 13 10 10 12 11 10 10 10 14 14 16 15 13 12 10 9 9 11 10
2 3 2 3 3 2 3 4 1 11 10 10 11 13 14 16 16 16 15 8 6 7 10 11 12 12 12 15 14 15 14 16 13 13 12 10 12 11 14 15 15 16 13 14 12 11 13 13 13
2 1 3 4 1 4 5 4 1 8 10 10 11 11 13 13 12 12 9 6 2 4 6 9 9 12 15 14 12 12 13 13 12 11 13 14 13 15 15 15 14 15 15 14 13 12 14 14 13
6 4 4 4 3 3 2 6 5 3 4 8 9 11 13 16 16 16 11 7 7 7 9 8 10 13 13 11 12 12 12 12 13 12 12 13 13 14 15 15 15 16 15 12 14 14 15 16 16
4 3 4 5 3 1 3 7 2 1 6 9 11 15 18 19 19 17 10 7 8 8 8 8 12 11 10 11 11 11 12 12 13 13 13 13 13 13 14 15 15 15 14 14 14 16 15 17 18
Wind_Direction
311 299 158 50 48 63 323 287 237 294 306 171 145 123 172 127 154 201 312 181 136 149 164 174 174 176 163 158 154 152 155 154 153 148 142 142 144 147 151 152 152 156 160 160 162 161 158 155 150
321 168 42 82 78 47 294 283 286 235 265 85 57 73 43 288 170 133 102 189 165 151 162 172 176 175 169 163 163 161 168 168 167 167 165 160 157 157 160 161 161 166 169 171 173 174 170 164 158
246 64 78 86 106 98 260 281 288 356 358 156 92 35 152 208 208 184 203 141 132 154 164 175 177 175 174 171 170 169 174 173 175 176 177 175 175 173 173 173 176 179 182 185 186 187 182 174 169
54 8 40 74 321 278 224 305 334 336 347 17 134 116 301 22 338 223 110 126 126 152 172 180 182 179 177 176 177 179 180 177 178 181 183 187 187 188 185 185 187 191 196 197 198 194 187 193 186
36 54 41 10 324 297 357 291 330 1 1 341 356 175 26 8 65 117 132 147 157 172 185 185 187 184 183 182 182 186 187 185 183 185 188 190 192 194 194 194 197 199 201 204 206 205 198 202 203
40 87 42 25 311 306 329 327 21 30 343 320 9 74 329 319 130 169 149 166 173 180 183 187 198 193 191 189 186 189 192 192 192 193 194 195 196 197 197 198 203 207 208 208 208 204 205 213 213
105 74 122 312 327 9 320 321 30 335 2 346 303 62 293 311 261 141 115 74 65 22 2 359 313 265 230 215 211 205 201 197 196 201 205 207 206 204 203 203 206 211 213 215 214 211 208 212 219
104 89 30 333 354 335 325 347 329 21 344 303 1 94 262 271 71 68 49 28 33 36 34 17 5 357 342 333 320 314 297 252 222 216 213 214 220 223 218 216 214 215 216 217 217 217 216 215 214
117 60 31 5 38 297 324 359 321 295 14 347 337 41 349 65 73 70 53 32 51 51 52 42 16 352 353 328 336 289 298 294 294 281 265 249 240 235 236 233 229 227 225 227 226 223 219 220 222
73 86 279 228 276 307 289 349 301 3 356 332 350 36 48 55 56 54 42 37 30 71 40 335 220 192 168 279 349 312 290 270 262 275 281 271 267 272 246 238 236 231 227 227 229 233 233 228 231
342 113 351 333 280 272 280 311 273 348 344 287 38 74 54 60 55 57 50 50 56 52 36 10 342 246 79 56 25 334 295 254 258 282 279 281 272 269 268 267 253 238 234 232 233 235 231 231 230
13 3 88 278 280 300 306 245 5 44 307 350 93 80 76 69 63 56 52 43 48 49 39 31 32 45 57 75 86 284 287 260 272 243 260 270 270 260 257 259 261 259 245 237 229 227 232 236 230
41 301 329 311 341 332 334 308 90 17 23 77 83 76 74 71 63 49 46 40 36 33 37 37 35 37 36 38 21 4 321 310 285 258 240 217 249 256 254 255 254 250 250 248 241 227 229 230 232
293 314 304 339 327 4 31 12 89 6 35 77 80 73 71 67 59 55 45 41 41 31 23 37 36 33 30 30 35 25 13 351 334 277 251 235 244 252 257 271 265 254 243 243 245 243 231 230 228
304 347 354 19 339 26 331 20 82 50 49 81 78 74 71 62 54 50 47 49 41 35 35 39 33 16 23 15 19 28 5 358 358 348 312 256 250 254 250 255 271 273 263 253 247 245 248 247 230
32 43 27 343 19 337 32 299 334 32 80 77 77 73 69 63 62 60 66 71 48 46 37 30 30 14 2 3 15 37 10 345 355 353 2 2 315 265 262 254 252 274 264 252 247 243 244 244 244
12 22 339 343 41 358 23 323 330 333 85 80 68 68 69 65 49 33 33 36 34 38 41 39 21 1 356 357 358 14 30 2 344 339 357 341 351 349 324 320 256 251 255 268 252 244 236 241 241
312 14 335 352 329 8 13 19 37 60 85 82 74 72 71 57 31 13 20 10 12 11 13 23 31 13 353 2 5 17 15 359 347 354 351 359 338 334 327 312 330 300 250 244 250 243 238 238 240
97 88 336 309 305 61 55 59 51 56 68 68 66 57 49 56 9 13 5 350 6 11 10 10 34 14 12 8 3 7 7 351 346 348 349 356 335 341 322 333 324 309 297 296 240 244 241 239 235
62 56 348 302 341 82 71 62 51 44 49 67 59 39 29 17 357 350 358 11 12 6 3 10 22 16 18 10 10 0 345 334 312 338 347 344 347 338 340 339 331 319 308 304 305 246 233 235 229
13 89 313 183 323 99 112 57 42 12 58 65 46 47 27 357 340 333 332 9 353 9 355 29 23 16 17 4 0 355 345 342 343 347 343 338 340 332 345 343 336 326 326 320 314 316 292 248 233
341 74 265 323 86 238 72 163 28 350 53 41 17 20 1 359 356 345 356 16 17 360 15 25 15 16 17 8 6 357 350 344 350 342 343 340 346 348 347 342 334 333 325 324 319 320 302 291 264
250 341 287 167 137 99 341 78 244 337 20 17 348 352 358 354 337 329 331 306 22 25 17 7 25 28 16 11 8 360 356 352 344 344 343 342 344 353 358 341 331 336 333 328 325 323 332 305 291
291 9 44 64 99 65 244 125 283 26 340 349 347 345 346 325 316 312 310 267 58 9 21 23 17 21 10 9 6 8 4 351 348 347 344 343 344 348 358 345 341 342 333 335 342 349 343 342 324
37 33 351 6 11 219 130 59 218 103 18 18 15 5 353 344 341 330 322 320 33 22 11 6 8 16 10 8 6 5 8 5 356 353 350 346 345 351 354 350 352 346 343 340 350 6 4 1 3
26 117 143 252 244 283 13 167 223 131 43 38 27 8 360 354 342 330 343 12 20 15 13 11 9 13 9 9 9 5 11 6 5 2 356 349 349 351 352 353 359 346 349 358 6 18 23 13 15
335 38 165 121 23 49 277 69 11 67 41 23 20 19 18 12 6 5 354 5 20 14 14 11 4 4 12 13 10 9 12 11 7 6 2 355 351 356 356 357 7 341 358 5 10 24 27 27 27
60 128 43 5 314 273 297 264 193 15 9 5 9 7 3 353 350 342 328 325 93 63 25 17 11 9 4 12 22 19 18 15 9 6 8 1 358 2 357 3 358 358 358 18 20 25 24 28 28
344 22 45 113 126 196 291 268 70 82 11 356 355 350 341 338 337 326 319 309 37 27 18 20 21 21 12 16 25 22 19 16 15 14 8 4 4 9 10 2 8 7 1 19 32 36 30 33 32
91 83 93 115 253 238 142 262 110 100 12 5 344 339 347 339 333 323 333 344 31 22 9 9 16 22 34 25 28 23 20 20 19 14 12 6 11 15 11 9 18 4 3 17 29 34 31 36 35